Location: StarHub Observatory
(35.2598°N, 77.5855°W)
Time: 21:12:03
(UTC-05:00)

Tiangong - Visible Passes

Search period start: 05 December 2021 00:00
Search period end: 15 December 2021 00:00
Orbit: 380 x 384 km, 41.5° (Epoch: 05 December)

Date Brightness Start Highest point End Pass type
(mag) Time Alt. Az. Time Alt. Az. Time Alt. Az.
05 Dec 2.9 18:24:40 10° SSW 18:26:48 20° SSE 18:26:48 20° SSE visible
06 Dec 3.7 17:26:22 10° SSE 17:26:48 10° SE 17:27:13 10° SE visible
06 Dec 3.1 19:00:01 10° WSW 19:01:35 27° SW 19:01:35 27° SW visible
07 Dec 2.0 17:59:46 10° SW 18:02:43 36° SSE 18:04:07 23° E visible
08 Dec 1.3 18:35:45 10° WSW 18:38:44 64° NW 18:38:44 64° NW visible
09 Dec 1.1 17:35:11 10° WSW 17:38:19 70° SSE 17:41:07 12° ENE visible
09 Dec 4.0 19:12:24 10° WNW 19:13:17 16° WNW 19:13:17 16° WNW visible
10 Dec 1.8 18:11:33 10° W 18:14:34 41° NNW 18:15:36 30° NNE visible
11 Dec 3.1 18:48:15 10° WNW 18:50:02 22° NW 18:50:02 22° NW visible
12 Dec 2.3 17:47:19 10° WNW 17:50:11 31° NNW 17:52:17 15° NE visible
13 Dec 2.5 18:23:56 10° WNW 18:26:37 25° N 18:26:40 25° N visible
14 Dec 2.5 17:23:00 10° WNW 17:25:45 26° N 17:28:28 10° NE visible
14 Dec 3.7 19:00:09 10° NW 19:01:03 16° NW 19:01:03 16° NW visible
